Regional Weather Roundup
Issued by NWS

Home | Current Version | Previous Version | Text Only | Print | Product List | Glossary Off
Versions: 1 2 3 4 5 6 7 8 9 10 11 12 13 14 15 16 17 18 19 20 21 22 23 24 25 26 27 28 29 30 31 32 33 34 35 36 37 38 39 40 41 42 43 44 45 46 47 48 49 50

892
ASUS45 KABQ 220001
RWRNM
NEW MEXICO REGIONAL WEATHER ROUNDUP
NATIONAL WEATHER SERVICE ALBUQUERQUE NM
600 PM MDT THU MAY 21 2015

NOTE: "FAIR" MEANS FEW OR NO CLOUDS BELOW 12,000 FEET AGL WITH NO
       SIGNIFICANT WEATHER OR OBSTRUCTIONS TO VISION.

      THIS PRODUCT IS RELEASED AS TWO VERSIONS.  ONE VERSION NEAR
      THE TOP OF THE HOUR CONTAINING PRELIMINARY DATA FROM ALBUQUERQUE
      AND OTHER STATIONS.  A FINAL VERSION WITH ADDITIONAL DATA IS
      ISSUED ABOUT 10 MINUTES AFTER THE HOUR.

NMZ501-503-504-510>518-220100-
NORTHWEST PLATEAU/NORTHCENTRAL MOUNTAINS

CITY           SKY/WX    TMP DP  RH WIND       PRES   REMARKS
FARMINGTON     SUNNY     66  40  38 E22G30    29.91F
6HR MIN TEMP:  65; 6HR MAX TEMP:  75;

SANTA FE       CLOUDY    50  40  68 S13       30.12R
6HR MIN TEMP:  50; 6HR MAX TEMP:  57;

TAOS           CLOUDY    54  37  54 SW14      30.11R

$$
NMZ402-403-502-505>509-220100-
WESTCENTRAL MOUNTAINS/SOUTHWEST MOUNTAINS

CITY           SKY/WX    TMP DP  RH WIND       PRES   REMARKS
GALLUP         PTSUNNY   68  19  15 S10G22    29.92F
6HR MIN TEMP:  66; 6HR MAX TEMP:  73;

GRANTS         RAIN      56  45  68 SE24G31   30.03S
SILVER CITY      N/A     64  37  36 S12       30.02F

$$
NMZ407-409-411-412-220100-
SOUTHERN DESERTS

CITY           SKY/WX    TMP DP  RH WIND       PRES   REMARKS
LORDSBURG      FAIR      77  30  18 S14G23    29.91F
DEMING         CLOUDY    72  33  24 W17G39    29.96R
6HR MIN TEMP:  72; 6HR MAX TEMP:  82;

HOLLOMAN AFB   MOSUNNY   78  47  33 NW21G26   29.86F
ALAMOGORDO     MOSUNNY   81  39  22 S15G22    29.88F
T OR C         CLOUDY    67  50  54 CALM      29.92F
6HR MIN TEMP:  63; 6HR MAX TEMP:  78; 6HR PCP:  0.02;


$$
NMZ519>523-220100-
CENTRAL VALLEYS/CENTRAL HIGHLANDS

CITY           SKY/WX    TMP DP  RH WIND       PRES   REMARKS
ALBUQUERQUE    RAIN      53  48  83 NE13      30.10R
6HR MIN TEMP:  53; 6HR MAX TEMP:  64; 6HR PCP:  0.06;

DOUBLE EAGLE   TSTM      48  46  93 N14       30.08F
CLINES CORNERS FOG       42  41  96 E15       30.14F VSB 3/4
6HR MIN TEMP:  42; 6HR MAX TEMP:  45; 6HR PCP:  0.07;

BELEN          CLOUDY    57  49  75 E6        30.03R
6HR MIN TEMP:  56; 6HR MAX TEMP:  70; 6HR PCP:  0.02;

SOCORRO        NOT AVBL

$$
NMZ524>526-539-540-220100-
SOUTHCENTRAL MOUNTAINS

CITY           SKY/WX    TMP DP  RH WIND       PRES   REMARKS
RUIDOSO        NOT AVBL

$$
NMZ527>531-220100-
NORTHEAST HIGHLANDS/NORTHEAST PLAINS

CITY           SKY/WX    TMP DP  RH WIND       PRES   REMARKS
LAS VEGAS      LGT RAIN  42  40  92 SE9       30.18F FOG
6HR MIN TEMP:  42; 6HR MAX TEMP:  45; 6HR PCP:  0.07;

RATON          NOT AVBL
CLAYTON        RAIN      47  45  93 S12       30.18F FOG
6HR MIN TEMP:  46; 6HR MAX TEMP:  49; 6HR PCP:  0.05;


$$
NMZ532>537-220100-
EASTCENTRAL PLAINS

CITY           SKY/WX    TMP DP  RH WIND       PRES   REMARKS
TUCUMCARI      TSTM      50  47  89 E13       30.14F FOG
6HR MIN TEMP:  49; 6HR MAX TEMP:  52; 6HR PCP:  0.24;

CANNON AFB     NOT AVBL
CLOVIS AIRPORT CLOUDY    46  45  93 E12       30.17F

$$
NMZ028-029-538-220100-
SOUTHEAST PLAINS

CITY           SKY/WX    TMP DP  RH WIND       PRES   REMARKS
ROSWELL        CLOUDY    52  49  89 SE9       30.14R
6HR MIN TEMP:  52; 6HR MAX TEMP:  54; 6HR PCP:  0.01;

ARTESIA        DRIZZLE   52  52 100 SE9       30.14R
CARLSBAD       CLOUDY    54  50  86 E9        30.12R
6HR MIN TEMP:  54; 6HR MAX TEMP:  56; 6HR PCP: TRACE;

HOBBS          FOG       50  50 100 E9        30.15F VSB 1


$$



USA.gov is the U.S. government's official web portal to all federal, state and local government web resources and services.